Station ADKA2 - 9461380 - Adak Island, AK Image indicating link to RSS feed of recent meteorological observations for station ADKA2


Conditions at ADKA2 as of
(1:18 pm HAST)
2318 GMT on 07/14/2024:
     

Click on the graph icon in the table below to see a time series plot of the last five days of that observation.

5-day plot - Wind Direction Wind Direction (WDIR): NE ( 50 deg true )
5-day plot - Wind Speed Wind Speed (WSPD): 6.0 kts
5-day plot - Wind Gust Wind Gust (GST): 8.0 kts
5-day plot - Atmospheric Pressure Atmospheric Pressure (PRES):29.90 in
5-day plot - Air Temperature Air Temperature (ATMP): 49.3 °F
5-day plot - Water Temperature Water Temperature (WTMP): 44.2 °F
5-day plot - Wind Chill Wind Chill (CHILL): 46.4 °F
5-day plot - Wind Speed at 10 Meters Wind Speed at 10 meters (WSPD10M): 5.8 kts
5-day plot - Wind Speed at 20 Meters Wind Speed at 20 meters (WSPD20M): 7.8 kts
5-day plot -  Wind Speed, Wind Gust and Atmospheric Pressure Combined plot of Wind Speed, Gust, and Air Pressure
NOS Water Level Observation Network Water Level
Previous observations
TIME
(HAST)
5-day plot - Wind Direction
WDIR
 
5-day plot - Wind Speed
WSPD
kts
5-day plot - Wind Gust
GST
kts
5-day plot - Wave Height
WVHT
ft
5-day plot - Dominant Wave Period
DPD
sec
5-day plot - Average Wave Period
APD
sec
5-day plot - Mean Wave Direction
MWD
 
5-day plot - Atmospheric Pressure
PRES
in
5-day plot - Pressure Tendency
PTDY
in
5-day plot - Air Temperature
ATMP
°F
5-day plot - Water Temperature
WTMP
°F
5-day plot - Dew Point
DEWP
°F
5-day plot - Salinity
SAL
psu
5-day plot - Visibility
VIS
nmi
5-day plot - Tide (above MLLW)
TIDE
ft
2024-07-14 01:12 pm NE 7.0 8.9----29.90- 49.3 44.2----
2024-07-14 01:06 pm NE 7.0 8.0----29.90- 49.3 44.4----
2024-07-14 01:00 pm NE 6.0 8.0----29.90-0.02 49.3 44.4----
2024-07-14 12:54 pm NE 7.0 8.0----29.90- 49.5 44.4----
2024-07-14 12:48 pm NE 6.0 8.0----29.90- 49.6 44.6----
2024-07-14 12:42 pmENE 6.0 8.0----29.90- 49.8 44.8----
2024-07-14 12:36 pm NE 6.0 8.9----29.90- 49.6 45.0----
2024-07-14 12:30 pmENE 5.1 7.0----29.90- 50.2 45.0----
2024-07-14 12:24 pm NE 2.9 6.0----29.90- 50.5 45.0----
2024-07-14 12:18 pm NE 4.1 6.0----29.90- 50.4 45.0----
2024-07-14 12:12 pm NE 1.0 6.0----29.91- 50.5 45.0----
2024-07-14 12:06 pmENE 2.9 8.9----29.91- 49.8 45.0----
2024-07-14 12:00 pmESE 6.0 8.9----29.91-0.01- 45.0----
2024-07-14 11:54 am E 2.9 12.0----29.91-- 45.0----
2024-07-14 11:48 am E 8.9 14.0----29.91- 49.3 45.0----
2024-07-14 11:42 am SE 14.0 15.9----29.91- 49.5 45.0----
2024-07-14 11:36 am SE 14.0 15.9----29.91- 49.3 45.0----
2024-07-14 11:30 amSSE 13.0 17.1----29.91-- 45.0----
2024-07-14 11:24 am SE 14.0 15.9----29.91-- 45.0----
2024-07-14 11:18 am SE 13.0 17.1----29.91- 49.5 44.8----
2024-07-14 11:12 am SE 11.1 13.0----29.91- 49.3 44.8----
2024-07-14 11:06 am SE 11.1 14.0----29.91- 49.3 44.8----
2024-07-14 11:00 amSSE 11.1 14.0----29.91-0.01 49.3 44.8----
2024-07-14 10:54 amSSE 12.0 15.9----29.91- 49.1 44.8----
2024-07-14 10:48 amSSE 11.1 15.0----29.91- 48.7 44.6----
2024-07-14 10:42 amSSE 9.9 12.0----29.91- 48.7 44.8----
2024-07-14 10:36 amSSE 12.0 13.0----29.91- 48.4 44.8----
2024-07-14 10:30 am SE 11.1 14.0----29.91- 48.4 44.8----
2024-07-14 10:24 am SE 8.9 13.0----29.92- 48.0 44.6----
2024-07-14 10:18 amSSE 9.9 15.0----29.92-- 44.8----
2024-07-14 10:12 am SE 9.9 13.0----29.92-- 44.8----
2024-07-14 10:06 am SE 8.9 13.0----29.92-- 44.8----
2024-07-14 10:00 am SE 9.9 12.0----29.92-- 44.8----
2024-07-14 09:54 am SE 8.0 9.9----29.92-- 44.8----
2024-07-14 09:48 amSSE 8.9 12.0----29.92- 47.7 44.8----
2024-07-14 09:42 amSSE 9.9 12.0----29.92- 47.7 44.8----
2024-07-14 09:36 amSSE 8.9 13.0----29.92- 47.7 44.8----
2024-07-14 09:30 amSSE 9.9 12.0----29.92-- 45.0----
2024-07-14 09:24 amSSE 8.9 12.0----29.92-- 45.0----
2024-07-14 09:18 amSSE 9.9 12.0----29.93- 47.3 45.0----
2024-07-14 09:12 amSSE 9.9 13.0----29.92- 47.5 45.0----
2024-07-14 09:06 amSSE 8.0 14.0----29.92- 47.5 45.0----
2024-07-14 09:00 amSSE 8.9 12.0----29.93-0.02 47.3 45.1----
2024-07-14 08:54 amSSE 9.9 12.0----29.93- 47.1 45.1----
2024-07-14 08:48 amSSE 8.9 15.0----29.93- 47.5 45.1----
2024-07-14 08:42 amSSE 12.0 14.0----29.93- 47.7 45.1----
2024-07-14 08:36 amSSE 11.1 12.0----29.93- 47.1 45.1----
2024-07-14 08:30 amSSE 7.0 11.1----29.93-- 45.1----
2024-07-14 08:24 am SE 8.9 11.1----29.93-- 45.1----
2024-07-14 08:18 am SE 8.9 11.1----29.93-------
2024-07-14 08:12 am SE 8.9 12.0----29.93-------
2024-07-14 08:06 amSSE 9.9 14.0----29.93-------
2024-07-14 08:00 amSSE 9.9 14.0----29.93-0.04 46.6 45.0----
2024-07-14 07:54 am SE 9.9 12.0----29.92- 46.6 45.0----
2024-07-14 07:48 am SE 8.0 11.1----29.93-- 45.0----
2024-07-14 07:42 am SE 8.9 12.0----29.93-- 45.0----
2024-07-14 07:36 am SE 8.9 13.0----29.93-- 44.8----
2024-07-14 07:30 amSSE 11.1 13.0----29.93-- 45.0----
2024-07-14 07:24 amSSE 9.9 12.0----29.93-- 45.0----
2024-07-14 07:18 am SE 8.0 11.1----29.94- 46.4 44.8----
2024-07-14 07:12 am SE 9.9 13.0----29.94- 46.4 44.6----
2024-07-14 07:06 am SE 9.9 12.0----29.94- 46.4 44.8----
2024-07-14 07:00 am SE 8.0 13.0------ 46.4 44.8----
2024-07-14 06:54 amSSE 8.0 11.1------ 46.4 45.0----
2024-07-14 06:48 am SE 8.0 12.0----29.95- 46.4 45.0----
2024-07-14 06:42 am SE 7.0 9.9----29.94- 46.6 45.0----
2024-07-14 06:36 am SE 8.0 12.0----29.94- 46.6 45.0----
2024-07-14 06:30 am SE 9.9 14.0----29.94- 46.8 45.1----
2024-07-14 06:24 am SE 8.0 11.1----29.94- 47.1 45.1----
2024-07-14 06:18 am-------29.94- 47.3 45.0----
2024-07-14 06:12 am-------29.94- 47.1 45.0----
2024-07-14 06:06 am-------29.94- 47.3 45.0----
2024-07-14 06:00 am SE 2.9 4.1----29.95-0.04 47.1 45.0----
2024-07-14 05:54 am E 1.9 2.9----29.95- 46.8 45.0----
2024-07-14 05:48 amNNE 1.9 4.1----29.95-- 45.0----
2024-07-14 05:42 am NE 1.9 2.9----29.95-- 45.0----
2024-07-14 05:36 am E 4.1 5.1----29.96-- 45.0----
2024-07-14 05:30 am E 4.1 6.0----29.96- 46.6 45.0----
2024-07-14 05:24 am SE 4.1 5.1----29.96- 46.4 45.1----
2024-07-14 05:18 am SE 4.1 5.1----29.96- 46.4 45.1----
2024-07-14 05:12 am SE 5.1 6.0----29.96- 46.2 45.1----
2024-07-14 05:06 amSSE 5.1 8.0----29.97- 46.2 45.1----
2024-07-14 05:00 am SE 6.0 7.0----29.97-0.05 46.0 45.1----
2024-07-14 04:54 am SE 2.9 4.1----29.96- 46.2 45.1----
2024-07-14 04:48 amSSE 1.9 1.9------ 46.4 45.1----
2024-07-14 04:42 am S 1.0 5.1------ 46.6 45.1----
2024-07-14 04:36 am S 2.9 4.1------ 46.8 45.1----
2024-07-14 04:30 amSSW 4.1 5.1----29.97- 46.8 45.1----
2024-07-14 04:24 amSSW 2.9 6.0----29.97- 46.9 45.1----
2024-07-14 04:18 am SW 5.1 11.1----29.97- 46.9 45.1----
2024-07-14 04:12 am S 12.0 13.0----29.97- 46.9 45.3----
2024-07-14 04:06 am S 8.9 13.0----29.97- 46.8 45.3----
2024-07-14 04:00 am-------29.97-0.06 46.9 45.3----
2024-07-14 03:54 am-------29.97- 47.3 45.3----
2024-07-14 03:48 am S 13.0 15.9----29.97- 47.3 45.5----
2024-07-14 03:42 am S 13.0 15.9----29.97- 47.3 45.3----
2024-07-14 03:36 am S 8.9 12.0----29.97- 47.1 45.3----
2024-07-14 03:30 am S 8.9 15.9----29.98- 47.5 45.3----
2024-07-14 03:24 amSSE 14.0 18.1----29.98- 47.5 45.3----
2024-07-14 03:18 amSSE 9.9 13.0----29.98-- 45.3----
2024-07-14 03:12 amSSE 12.0 15.0----29.98-- 45.5----
2024-07-14 03:06 amSSE 12.0 13.0----29.98-- 45.5----
2024-07-14 03:00 am S 8.0 12.0----29.99-0.05 47.8 45.5----
2024-07-14 02:54 am S 9.9 13.0----29.99- 47.8 45.5----
2024-07-14 02:48 am S 11.1 12.0----29.99- 47.7 45.5----
2024-07-14 02:42 amSSE 11.1 14.0----30.00- 47.7 45.5----
2024-07-14 02:36 amSSE 14.0 17.1----30.00- 48.2 45.5----
2024-07-14 02:30 amSSE 12.0 17.1----30.00- 48.4 45.5----
2024-07-14 02:24 am SE 9.9 13.0----30.01- 48.4 45.5----
2024-07-14 02:18 am S 8.9 9.9----30.01- 48.4 45.5----
2024-07-14 02:12 amSSE 8.9 12.0----30.01- 48.4 45.3----
2024-07-14 02:06 amSSE 8.0 8.9----30.02- 48.4 45.1----
2024-07-14 02:00 am S 7.0 9.9----30.02-0.04 48.6 45.0----
2024-07-14 01:54 am S 8.0 9.9----30.02- 48.7 45.0----
2024-07-14 01:48 am S 8.9 9.9----30.02-- 45.0----
2024-07-14 01:42 amSSE 6.0 8.0----30.02-- 45.0----
2024-07-14 01:36 am SE 7.0 9.9----30.02-- 45.0----
2024-07-14 01:30 amESE 7.0 8.9----30.02- 49.5 45.1----
2024-07-14 01:24 am SE 7.0 8.9----30.03- 49.5 45.0----
2024-07-14 01:18 amSSE 8.0 13.0----30.03- 50.0 44.8----
2024-07-14 01:12 amESE 9.9 12.0----30.02- 49.6 44.8----
2024-07-14 01:06 am SE 11.1 12.0----30.03- 49.5 44.6----
2024-07-14 01:00 am SE 8.9 11.1----30.03-0.03- 44.6----
2024-07-14 12:54 am SE 8.9 12.0----30.03-- 43.9----
2024-07-14 12:48 am SE 11.1 13.0----30.03- 49.5 43.3----
2024-07-14 12:42 am SE 12.0 13.0----30.03- 49.6 43.3----
2024-07-14 12:36 am SE 9.9 12.0----30.03- 49.3 43.2----
2024-07-14 12:30 amSSE 8.9 12.0----30.03-- 43.2----
2024-07-14 12:24 amSSE 8.9 12.0----30.04-- 43.2----
2024-07-14 12:18 am S 8.9 12.0----30.04- 49.5 43.3----
2024-07-14 12:12 am S 8.9 12.0----30.04- 49.5 44.8----
2024-07-14 12:06 am S 8.9 12.0----30.04- 49.3 44.6----
2024-07-14 12:00 am S 12.0 14.0----30.04-0.02 49.5 43.7----
2024-07-13 11:54 pmSSE 12.0 13.0----30.04- 49.5 43.5----
2024-07-13 11:48 pm S 9.9 11.1----30.04- 49.5 43.3----
2024-07-13 11:42 pm S 8.0 11.1----30.04- 49.5 43.5----
2024-07-13 11:36 pm S 8.0 12.0----30.04- 49.1 43.7----
2024-07-13 11:30 pmSSE 9.9 12.0----30.05- 49.5 43.9----
2024-07-13 11:24 pm S 4.1 7.0----30.05- 49.1 44.1----
2024-07-13 11:18 pmWSW 4.1 6.0----30.05- 49.5 44.2----
2024-07-13 11:12 pmWSW 4.1 8.0----30.05- 49.8 44.4----
2024-07-13 11:06 pmSSW 5.1 7.0----30.05- 49.8 44.4----
2024-07-13 11:00 pmWSW 5.1 7.0----30.06+0.00- 44.4----
2024-07-13 10:54 pmWSW 4.1 5.1----30.06-- 44.6----
2024-07-13 10:48 pmWSW 2.9 4.1----30.06-- 44.8----
2024-07-13 10:42 pm SW 4.1 4.1----30.06-- 44.8----
2024-07-13 10:36 pmSSW 1.9 2.9----30.06-- 44.8----
2024-07-13 10:30 pmSSW 1.0 2.9----30.06- 49.3 44.8----
2024-07-13 10:24 pmWSW 2.9 4.1----30.06- 47.8 44.8----
2024-07-13 10:18 pm W 4.1 4.1----30.06-- 44.8----
2024-07-13 10:12 pm SW 1.9 2.9----30.06-- 44.8----
2024-07-13 10:06 pmSSE 1.9 2.9----30.06-- 44.8----
2024-07-13 10:00 pmSSW 2.9 4.1----30.06+0.00 48.6 45.1----
2024-07-13 09:54 pmSSW 2.9 4.1----30.06- 48.0 45.7----
2024-07-13 09:48 pmSSW 2.9 5.1----30.06-- 45.9----
2024-07-13 09:42 pm- 0.0 1.0----30.06-- 45.9----
2024-07-13 09:36 pm- 0.0 0.0----30.06-- 45.9----
2024-07-13 09:30 pm- 0.0 1.9----30.06- 49.8 46.0----
2024-07-13 09:24 pmESE 1.9 1.9----30.06- 50.0 45.7----
2024-07-13 09:18 pm N 1.0 1.9----30.05- 51.4 45.7----
2024-07-13 09:12 pmNNE 1.0 1.9----30.05- 50.9 45.3----
2024-07-13 09:06 pm- 0.0 1.0----30.06- 50.9 45.1----
2024-07-13 09:00 pm- 0.0 1.9----30.06+0.00 50.7 44.6----
2024-07-13 08:54 pmENE 1.9 2.9----30.06- 50.0 44.4----
2024-07-13 08:48 pm E 1.9 2.9----30.06- 49.8 44.1----
2024-07-13 08:42 pm E 2.9 4.1----30.05- 49.6 43.9----
2024-07-13 08:36 pmENE 2.9 4.1----30.06- 49.6 44.6----
2024-07-13 08:30 pmENE 2.9 4.1----30.06- 49.6 44.4----
2024-07-13 08:24 pmENE 4.1 4.1----30.06- 49.6 44.6----
2024-07-13 08:18 pmENE 2.9 4.1----30.06-- 44.4----
2024-07-13 08:12 pm E 4.1 4.1----30.06-- 44.4----
2024-07-13 08:06 pmENE 2.9 4.1----30.06-- 44.1----
2024-07-13 08:00 pmENE 4.1 5.1----30.06+0.00 49.3 44.4----
2024-07-13 07:54 pmENE 4.1 5.1----30.06- 49.3 43.9----
2024-07-13 07:48 pm E 5.1 6.0----30.06- 49.1 44.1----
2024-07-13 07:42 pmENE 5.1 7.0----30.06- 48.9 43.9----
2024-07-13 07:36 pmENE 5.1 7.0----30.06- 48.9 43.7----
2024-07-13 07:30 pmENE 7.0 7.0----30.06- 48.7 43.3----
2024-07-13 07:24 pmENE 6.0 7.0----30.06- 48.7 43.3----
2024-07-13 07:18 pm E 6.0 7.0----30.07-- 43.3----
2024-07-13 07:12 pm E 7.0 8.0----30.06-- 43.3----
2024-07-13 07:06 pm E 6.0 8.0----30.06-- 43.3----
2024-07-13 07:00 pmENE 7.0 8.0----30.06-0.01- 43.3----
2024-07-13 06:54 pm E 7.0 8.0----30.06-- 43.3----
2024-07-13 06:48 pmENE 6.0 8.0----30.06-- 43.3----
2024-07-13 06:42 pm E 7.0 8.0----30.06-- 43.3----
2024-07-13 06:36 pm E 7.0 8.0----30.06-- 43.5----
2024-07-13 06:30 pmENE 7.0 8.0----30.06- 48.6 43.5----
2024-07-13 06:24 pmENE 7.0 8.0----30.06- 48.6 43.5----
2024-07-13 06:18 pm E 7.0 8.0----30.07- 48.6 43.5----
2024-07-13 06:12 pm E 7.0 8.0----30.07- 48.4 43.5----
2024-07-13 06:06 pmENE 7.0 8.9----30.07- 48.6 43.7----
2024-07-13 06:00 pm E 8.0 8.9----30.06-0.02 48.2 43.3----
2024-07-13 05:54 pm E 7.0 8.0----30.07- 48.0 43.3----
2024-07-13 05:48 pm E 6.0 8.9----30.07- 48.0 43.5----
2024-07-13 05:42 pm E 8.0 8.9----30.06- 47.8 43.5----
2024-07-13 05:36 pm E 7.0 8.9----30.06- 47.8 43.5----
2024-07-13 05:30 pmENE 7.0 9.9----30.06- 47.8 43.5----
2024-07-13 05:24 pmENE 8.9 11.1----30.06- 47.8 43.5----
2024-07-13 05:18 pmENE 8.0 9.9----30.06- 47.8 43.5----
2024-07-13 05:12 pmENE 8.9 9.9----30.06- 47.8 43.5----
2024-07-13 05:06 pmENE 8.9 11.1----30.06- 47.8 43.5----
2024-07-13 05:00 pm E 8.9 11.1----30.06-0.02 48.0 43.5----
2024-07-13 04:54 pmENE 8.9 11.1----30.06- 48.2 43.5----
2024-07-13 04:48 pm E 8.0 9.9----30.06- 48.0 43.7----
2024-07-13 04:42 pmENE 8.0 8.9----30.07- 47.8 43.7----
2024-07-13 04:36 pmENE 8.0 9.9----30.07- 48.4 43.7----
2024-07-13 04:30 pm E 8.0 9.9----30.07- 48.4 43.7----
2024-07-13 04:24 pm E 6.0 9.9----30.07- 48.9 43.5----
2024-07-13 04:18 pm E 8.9 9.9----30.07- 48.2-----
2024-07-13 04:12 pmENE 7.0 9.9----30.08- 48.4-----
2024-07-13 04:06 pm E 7.0 8.9----30.08- 48.2-----
2024-07-13 04:00 pmENE 7.0 8.0----30.08+0.00 49.1 43.5----
2024-07-13 03:54 pmENE 4.1 7.0----30.08- 50.0 43.7----
2024-07-13 03:48 pmENE 5.1 6.0----30.08-- 43.5----
2024-07-13 03:42 pmENE 5.1 7.0----30.08-- 43.5----
2024-07-13 03:36 pm E 6.0 7.0----30.08-- 43.5----
2024-07-13 03:30 pmENE 5.1 7.0----30.08- 50.4 43.3----
2024-07-13 03:24 pm E 4.1 6.0----30.09- 49.8 43.3----
2024-07-13 03:18 pm E 5.1 6.0----30.09-- 43.3----
2024-07-13 03:12 pm NE 4.1 6.0----30.09-- 43.3----
2024-07-13 03:06 pm E 2.9 8.0----30.08-- 43.3----
2024-07-13 03:00 pm W 8.0 12.0----30.08+0.00 54.9 43.5----
2024-07-13 02:54 pm W 9.9 12.0----30.08- 54.3 43.7----
2024-07-13 02:48 pm W 9.9 12.0------- 43.5----
2024-07-13 02:42 pm W 9.9 12.0------- 43.5----
2024-07-13 02:36 pm W 8.9 12.0------- 43.5----
2024-07-13 02:30 pm W 9.9 12.0----30.08- 54.1 43.7----
2024-07-13 02:24 pm W 12.0 13.0----30.08- 53.8 43.7----
2024-07-13 02:18 pm W 11.1 14.0----30.08- 53.8 43.7----
2024-07-13 02:12 pm W 11.1 15.0----30.08- 53.6 43.3----
2024-07-13 02:06 pm W 14.0 15.9----30.08- 53.2 43.2----
2024-07-13 02:00 pm W 13.0 15.9----30.08+0.00 53.2 43.3----
2024-07-13 01:54 pm W 12.0 15.9----30.08- 53.2 43.5----